FW7253 Weather Reports


time (UTC)temp
F
wind
direction
speed
knots
gust
knots
rain 1hr
in
rain 24hr
in
rain mn
in
humidity
%
barometer
mb
20260903141546 62 221 2.6 8.7 0.00 0.00 0.00 56 1005.7
20260903141031 62 69 2.6 8.7 0.00 0.00 0.00 54 1005.6
20260903140534 63 72 4.3 8.7 0.00 0.00 0.00 54 1005.6
20260903140047 63 155 1.7 6.1 0.00 0.00 0.00 54 1005.7
20260903135533 63 167 2.6 6.1 0.00 0.00 0.00 54 1005.6
20260903135031 65 187 2.6 7.8 0.00 0.00 0.00 52 1005.8
20260903134604 65 169 3.5 8.7 0.00 0.00 0.00 52 1005.6
20260903134030 65 101 3.5 8.7 0.00 0.00 0.00 49 1005.7
20260903133532 65 208 5.2 8.7 0.00 0.00 0.00 51 1005.7
20260903133051 65 68 3.5 7.8 0.00 0.00 0.00 49 1005.7
20260903132532 65 92 1.7 7.0 0.00 0.00 0.00 49 1005.8
20260903132031 65 134 2.6 6.1 0.00 0.00 0.00 51 1005.9
20260903131548 65 193 1.7 5.2 0.00 0.00 0.00 51 1005.9
20260903131032 65 117 2.6 9.6 0.00 0.00 0.00 50 1006.0
20260903130533 65 165 1.7 9.6 0.00 0.00 0.00 50 1006.0
20260903130047 65 122 2.6 7.8 0.00 0.00 0.00 49 1005.9
20260903125531 66 175 3.5 8.7 0.00 0.00 0.00 48 1006.0
20260903125032 66 112 3.5 8.7 0.00 0.00 0.00 49 1006.1
20260903124559 66 174 5.2 8.7 0.00 0.00 0.00 48 1006.2
20260903124031 65 180 1.7 6.1 0.00 0.00 0.00 50 1006.1
20260903123532 65 148 2.6 7.8 0.00 0.00 0.00 51 1006.1
20260903123048 64 140 2.6 7.8 0.00 0.00 0.00 50 1006.2
20260903122535 64 162 4.3 7.8 0.00 0.00 0.00 50 1006.3
20260903122032 63 124 2.6 7.0 0.00 0.00 0.00 51 1006.4
20260903121552 63 123 4.3 7.0 0.00 0.00 0.00 49 1006.5
20260903121035 64 155 2.6 7.0 0.00 0.00 0.00 51 1006.6
20260903120531 63 185 2.6 7.0 0.00 0.00 0.00 50 1006.5
20260903120056 64 117 1.7 4.3 0.00 0.00 0.00 49 1006.5
20260903115537 64 240 0.9 6.1 0.00 0.00 0.00 47 1006.5
20260903115031 64 96 1.7 6.1 0.00 0.00 0.00 49 1006.6
20260903114549 64 153 2.6 6.1 0.00 0.00 0.00 48 1006.7
20260903114030 64 120 3.5 6.1 0.00 0.00 0.00 48 1006.5
20260903113533 65 171 2.6 7.0 0.00 0.00 0.00 46 1006.6
20260903113047 64 113 2.6 7.8 0.00 0.00 0.00 51 1006.6
20260903112532 64 0 0.9 7.8 0.00 0.00 0.00 49 1006.6
20260903112033 64 218 3.5 7.8 0.00 0.00 0.00 49 1006.7
20260903111545 64 117 0.9 7.0 0.00 0.00 0.00 50 1006.8
20260903111032 63 184 3.5 7.0 0.00 0.00 0.00 50 1006.7
20260903110532 64 151 2.6 7.0 0.00 0.00 0.00 51 1006.8
20260903110050 64 216 2.6 7.0 0.00 0.00 0.00 52 1006.8
20260903105532 63 134 1.7 5.2 0.00 0.00 0.00 51 1006.9
20260903105033 62 128 2.6 6.1 0.00 0.00 0.00 52 1006.9
20260903104547 62 176 1.7 6.1 0.00 0.00 0.00 51 1007.0
20260903104034 63 136 3.5 6.1 0.00 0.00 0.00 51 1007.0
20260903103535 63 194 2.6 7.8 0.00 0.00 0.00 53 1007.0
20260903103048 63 223 3.5 7.8 0.00 0.00 0.00 51 1007.0
20260903102530 64 196 4.3 7.8 0.00 0.00 0.00 51 1007.0
20260903102032 63 170 1.7 3.5 0.00 0.00 0.00 52 1007.0
20260903101547 63 85 1.7 3.5 0.00 0.00 0.00 51 1007.1
20260903101031 62 114 0.9 2.6 0.00 0.00 0.00 57 1007.1
20260903100532 62 119 0.9 1.7 0.00 0.00 0.00 55 1007.2
20260903100046 62 115 0.9 2.6 0.00 0.00 0.00 53 1007.3
20260903095535 62 103 0.9 2.6 0.00 0.00 0.00 54 1007.2
20260903095031 62 126 0.9 3.5 0.00 0.00 0.00 55 1007.3
20260903094546 62 107 1.7 3.5 0.00 0.00 0.00 54 1007.3
20260903094033 62 146 1.7 3.5 0.00 0.00 0.00 55 1007.3
20260903093532 61 118 1.7 4.3 0.00 0.00 0.00 54 1007.3
20260903093051 61 150 0.0 4.3 0.00 0.00 0.00 56 1007.4
20260903092532 61 228 2.6 4.3 0.00 0.00 0.00 56 1007.4
20260903092031 61 232 0.9 2.6 0.00 0.00 0.00 58 1007.5
20260903091603 60 224 0.9 2.6 0.00 0.00 0.00 57 1007.5
20260903091031 60 242 0.9 2.6 0.00 0.00 0.00 58 1007.5
20260903090531 60 300 0.9 4.3 0.00 0.00 0.00 60 1007.7
20260903090053 60 335 0.0 4.3 0.00 0.00 0.00 59 1007.7
20260903085530 59 153 2.6 4.3 0.00 0.00 0.00 60 1007.7
20260903085032 58 5 0.9 3.5 0.00 0.00 0.00 62 1007.7
20260903084549 58 113 0.9 3.5 0.00 0.00 0.00 64 1007.7
20260903084031 57 233 0.9 3.5 0.00 0.00 0.00 64 1007.8
20260903083531 57 236 0.9 2.6 0.00 0.00 0.00 64 1007.9
20260903083050 56 167 0.0 0.9 0.00 0.00 0.00 68 1007.8
20260903082531 55 0 0.0 0.9 0.00 0.00 0.00 68 1007.9
20260903082031 54 130 0.0 0.9 0.00 0.00 0.00 70 1008.0
20260903081555 54 0 0.0 0.9 0.00 0.00 0.00 72 1008.0
20260903081034 54 0 0.0 0.9 0.00 0.00 0.00 70 1007.9
20260903080535 54 0 0.0 1.7 0.00 0.00 0.00 70 1008.0
20260903080059 55 0 0.0 2.6 0.00 0.00 0.00 69 1008.0
20260903075535 54 95 0.9 2.6 0.00 0.00 0.00 69 1008.0
20260903075037 54 123 1.7 2.6 0.00 0.00 0.00 70 1008.0
20260903074548 54 122 0.9 2.6 0.00 0.00 0.00 72 1008.1
20260903074036 53 115 0.9 1.7 0.00 0.00 0.00 72 1008.0
20260903073536 52 177 0.0 1.7 0.00 0.00 0.00 75 1008.0
20260903073112 51 167 0.0 0.0 0.00 0.00 0.00 75 1008.2
20260903072535 51 0 0.0 0.9 0.00 0.00 0.00 76 1008.2
20260903072036 50 0 0.0 1.7 0.00 0.00 0.00 76 1008.2
20260903071551 49 0 0.9 2.6 0.00 0.00 0.00 77 1008.2
20260903071034 49 127 0.9 2.6 0.00 0.00 0.00 77 1008.2
20260903070538 48 104 1.7 2.6 0.00 0.00 0.00 79 1008.2
20260903070048 48 129 0.9 2.6 0.00 0.00 0.00 81 1008.3
20260903065535 47 173 0.0 1.7 0.00 0.00 0.00 82 1008.4
20260903065035 47 0 0.9 2.6 0.00 0.00 0.00 82 1008.5
20260903064554 46 228 0.0 2.6 0.00 0.00 0.00 83 1008.3
20260903064034 46 0 0.0 1.7 0.00 0.00 0.00 85 1008.3
20260903063535 45 0 0.0 1.7 0.00 0.00 0.00 86 1008.3
20260903063104 44 145 0.0 0.9 0.00 0.00 0.00 87 1008.5
20260903062531 43 0 0.0 0.0 0.00 0.00 0.00 88 1008.5
20260903062035 43 0 0.0 0.0 0.00 0.00 0.00 88 1008.7
20260903061552 43 0 0.0 0.0 0.00 0.00 0.00 88 1008.6
20260903061034 43 0 0.0 0.0 0.00 0.00 0.00 88 1008.6
20260903060535 42 0 0.0 0.9 0.00 0.00 0.00 87 1008.6
20260903060049 42 0 0.0 0.9 0.00 0.00 0.00 87 1008.7
20260903055536 42 0 0.0 0.9 0.00 0.00 0.00 86 1008.7
20260903055034 42 0 0.0 1.7 0.00 0.00 0.00 86 1008.7
20260903054553 42 0 0.0 1.7 0.00 0.00 0.00 86 1008.7
20260903054037 42 213 0.0 0.9 0.00 0.00 0.00 86 1008.7
20260903053536 41 0 0.0 0.9 0.00 0.00 0.00 86 1008.8
20260903053049 41 153 0.0 0.9 0.00 0.00 0.00 87 1008.8
20260903052535 41 0 0.0 0.9 0.00 0.00 0.00 87 1008.8
20260903052035 41 0 0.0 1.7 0.00 0.00 0.00 87 1008.9
20260903051546 41 0 0.0 1.7 0.00 0.00 0.00 87 1008.8
20260903051038 40 0 0.0 1.7 0.00 0.00 0.00 88 1008.8
20260903050537 40 0 0.0 0.0 0.00 0.00 0.00 88 1008.8
20260903050055 40 0 0.0 0.0 0.00 0.00 0.00 87 1008.8
20260903045535 40 0 0.0 0.0 0.00 0.00 0.00 87 1008.8
20260903045037 41 0 0.0 0.9 0.00 0.00 0.00 88 1008.9
20260903044549 40 0 0.0 0.9 0.00 0.00 0.00 88 1008.8
20260903044037 40 0 0.0 0.0 0.00 0.00 0.00 88 1008.8
20260903043534 40 0 0.0 0.9 0.00 0.00 0.00 88 1008.8
20260903043101 40 0 0.0 1.7 0.00 0.00 0.00 88 1008.7
20260903042535 40 92 0.9 1.7 0.00 0.00 0.00 88 1008.7
20260903042035 40 0 0.0 1.7 0.00 0.00 0.00 87 1008.8
20260903041555 40 0 0.0 0.9 0.00 0.00 0.00 87 1008.9
20260903041034 40 0 0.0 1.7 0.00 0.00 0.00 86 1008.8
20260903040534 40 113 0.0 1.7 0.00 0.00 0.00 86 1009.0
20260903040052 41 103 0.0 1.7 0.00 0.00 0.00 85 1008.9
20260903035535 41 286 0.0 1.7 0.00 0.00 0.00 84 1008.7
20260903035035 41 0 0.0 0.9 0.00 0.00 0.00 83 1008.8
20260903034559 41 0 0.0 1.7 0.00 0.00 0.00 84 1008.8
20260903034035 41 97 0.9 1.7 0.00 0.00 0.00 84 1008.8
20260903033534 41 0 0.0 0.9 0.00 0.00 0.00 84 1008.8
20260903033058 42 0 0.0 1.7 0.00 0.00 0.00 84 1008.6
20260903032535 42 0 0.0 1.7 0.00 0.00 0.00 86 1008.6
20260903032037 41 0 0.0 0.9 0.00 0.00 0.00 86 1008.7
20260903031554 42 0 0.0 2.6 0.00 0.00 0.00 85 1008.7
20260903031034 42 0 0.0 2.6 0.00 0.00 0.00 85 1008.8
20260903030533 42 88 0.9 1.7 0.00 0.00 0.00 85 1008.8
20260903030103 41 0 0.9 1.7 0.00 0.00 0.00 84 1008.9
20260903025535 42 293 0.9 1.7 0.00 0.00 0.00 82 1008.8
20260903025035 42 0 0.0 0.9 0.00 0.00 0.00 82 1008.8
20260903024554 42 328 0.0 0.9 0.00 0.00 0.00 82 1008.7
20260903024034 42 0 0.0 0.0 0.00 0.00 0.00 83 1008.8
20260903023535 43 0 0.0 0.9 0.00 0.00 0.00 82 1008.8
20260903023107 43 0 0.0 0.9 0.00 0.00 0.00 83 1008.9
20260903022536 43 0 0.0 0.0 0.00 0.00 0.00 83 1008.9
20260903022038 43 0 0.0 0.9 0.00 0.00 0.00 82 1009.0
20260903021556 43 0 0.0 0.9 0.00 0.00 0.00 81 1009.0
20260903021035 44 0 0.0 0.9 0.00 0.00 0.00 81 1008.9
20260903020534 43 0 0.0 0.9 0.00 0.00 0.00 81 1008.9
20260903020054 43 0 0.0 0.9 0.00 0.00 0.00 81 1009.0
20260903015534 43 0 0.0 0.9 0.00 0.00 0.00 80 1009.1
20260903015035 43 0 0.0 0.9 0.00 0.00 0.00 80 1009.0
20260903014555 43 0 0.0 0.9 0.00 0.00 0.00 79 1009.1
20260903014038 44 0 0.0 0.9 0.00 0.00 0.00 78 1009.1
20260903013538 44 0 0.0 0.9 0.00 0.00 0.00 78 1009.0
20260903013050 45 0 0.0 0.0 0.00 0.00 0.00 77 1009.1
20260903012539 45 0 0.0 0.0 0.00 0.00 0.00 76 1009.0
20260903012034 45 0 0.0 0.0 0.00 0.00 0.00 76 1009.1
20260903011545 45 0 0.0 0.9 0.00 0.00 0.00 76 1009.0
20260903011035 45 0 0.0 0.9 0.00 0.00 0.00 76 1009.2
20260903010534 46 0 0.0 1.7 0.00 0.00 0.00 75 1009.2
20260903010051 46 0 0.9 1.7 0.00 0.00 0.00 75 1009.2
20260903005538 46 105 0.0 0.9 0.00 0.00 0.00 75 1009.1
20260903005036 46 0 0.0 0.9 0.00 0.00 0.00 75 1009.3
20260903004552 46 336 0.0 0.9 0.00 0.00 0.00 75 1009.3
20260903004036 46 0 0.0 2.6 0.00 0.00 0.00 74 1009.2
20260903003537 47 0 0.0 3.5 0.00 0.00 0.00 72 1009.2
20260903003055 47 227 0.9 3.5 0.00 0.00 0.00 72 1009.3
20260903002535 48 0 0.9 3.5 0.00 0.00 0.00 71 1009.1
20260903002035 48 0 0.0 1.7 0.00 0.00 0.00 71 1009.2
20260903001550 47 0 0.0 1.7 0.00 0.00 0.00 72 1009.3
20260903001035 48 0 0.0 1.7 0.00 0.00 0.00 70 1009.1
20260903000535 48 131 0.0 1.7 0.00 0.00 0.00 69 1009.1
20260903000057 48 0 0.0 1.7 0.00 0.00 0.00 69 1009.0
20260902235535 49 248 0.0 4.3 0.00 0.00 0.00 67 1009.1
20260902235035 49 115 0.9 6.1 0.00 0.00 0.00 66 1009.1
20260902234548 49 88 0.9 6.1 0.00 0.00 0.00 67 1008.9
20260902234034 49 319 3.5 6.1 0.00 0.00 0.00 67 1008.9
20260902233534 49 231 0.9 5.2 0.00 0.00 0.00 67 1009.0
20260902233101 48 0 0.9 3.5 0.00 0.00 0.00 69 1008.9
20260902232534 48 0 0.9 6.1 0.00 0.00 0.00 69 1008.9
20260902232035 48 295 2.6 6.1 0.00 0.00 0.00 69 1008.9
20260902231549 49 207 0.9 7.0 0.00 0.00 0.00 68 1009.0
20260902231035 50 245 3.5 7.0 0.00 0.00 0.00 65 1009.0
20260902230537 51 282 3.5 6.1 0.00 0.00 0.00 63 1009.1
20260902230104 50 250 2.6 6.1 0.00 0.00 0.00 64 1009.1
20260902225536 50 245 3.5 5.2 0.00 0.00 0.00 66 1009.1
20260902225123 49 311 1.7 4.3 0.00 0.00 0.00 67 1009.2
20260902224556 49 323 0.9 1.7 0.00 0.00 0.00 67 1009.2
20260902224034 50 283 0.9 1.7 0.00 0.00 0.00 66 1009.3
20260902223534 51 8 0.0 4.3 0.00 0.00 0.00 65 1009.3
20260902223103 51 0 0.0 4.3 0.00 0.00 0.00 63 1009.2
20260902222534 52 292 1.7 4.3 0.00 0.00 0.00 63 1009.3
20260902222034 52 82 0.9 3.5 0.00 0.00 0.00 62 1009.3
20260902221556 52 271 0.0 18.2 0.00 0.00 0.00 61 1009.3
20260902221036 52 231 2.6 18.2 0.00 0.00 0.00 61 1009.2
20260902220533 51 221 1.7 7.0 0.00 0.00 0.00 62 1009.2
20260902220054 51 203 0.0 4.3 0.00 0.00 0.00 63 1009.2
20260902215531 51 212 2.6 6.1 0.00 0.00 0.00 63 1009.1
20260902215032 51 246 2.6 6.1 0.00 0.00 0.00 62 1009.1
20260902214549 51 255 2.6 5.2 0.00 0.00 0.00 62 1009.1
20260902214032 51 324 2.6 6.1 0.00 0.00 0.00 62 1009.0
20260902213534 51 0 0.0 6.1 0.00 0.00 0.00 62 1009.1
20260902213045 51 281 3.5 6.1 0.00 0.00 0.00 63 1009.2
20260902212533 51 0 0.0 3.5 0.00 0.00 0.00 63 1009.1
20260902212033 52 0 0.9 3.5 0.00 0.00 0.00 62 1009.1
20260902211555 52 82 0.9 7.0 0.00 0.00 0.00 63 1009.0
20260902211032 52 95 1.7 7.0 0.00 0.00 0.00 63 1009.0
20260902210532 51 118 3.5 7.0 0.00 0.00 0.00 64 1009.0
20260902210048 51 1 0.9 5.2 0.00 0.00 0.00 66 1008.9
20260902205531 52 80 1.7 5.2 0.00 0.00 0.00 63 1008.8
20260902205035 53 87 0.0 7.8 0.00 0.00 0.00 61 1008.8
20260902204621 53 18 3.5 7.8 0.00 0.00 0.00 60 1008.8
20260902204034 52 309 0.9 3.5 0.00 0.00 0.00 61 1008.9
20260902203534 53 280 0.9 5.2 0.00 0.00 0.00 60 1009.1
20260902203055 53 355 0.0 5.2 0.00 0.00 0.00 62 1009.2
20260902202533 54 0 1.7 5.2 0.00 0.00 0.00 59 1009.2
20260902202032 53 0 0.0 1.7 0.00 0.00 0.00 63 1009.0
20260902201550 53 0 0.0 1.7 0.00 0.00 0.00 64 1008.8
20260902201032 53 290 0.0 1.7 0.00 0.00 0.00 62 1008.7
20260902200532 53 252 0.0 1.7 0.00 0.00 0.00 63 1008.8
20260902200046 54 108 0.0 1.7 0.00 0.00 0.00 61 1008.9
20260902195531 55 290 0.0 5.2 0.00 0.00 0.00 61 1009.0
20260902195034 55 89 0.9 5.2 0.00 0.00 0.00 59 1008.9
20260902194555 55 18 1.7 7.0 0.00 0.00 0.00 59 1008.9
20260902194032 55 343 2.6 8.7 0.00 0.00 0.00 59 1008.8
20260902193532 56 3 2.6 8.7 0.00 0.00 0.00 58 1008.9
20260902193049 56 309 1.7 9.6 0.00 0.00 0.00 57 1008.7
20260902192535 57 27 1.7 9.6 0.00 0.00 0.00 56 1008.5
20260902192035 57 321 3.5 9.6 0.00 0.00 0.00 56 1008.6
20260902191546 57 257 3.5 9.6 0.00 0.00 0.00 56 1008.5
20260902191035 57 301 4.3 12.2 0.00 0.00 0.00 55 1008.5
20260902190532 58 264 6.1 12.2 0.00 0.00 0.00 55 1008.5
20260902190100 58 285 7.0 12.2 0.00 0.00 0.00 55 1008.5
20260902185532 59 259 7.0 10.4 0.00 0.00 0.00 54 1008.5
20260902185035 59 265 4.3 11.3 0.00 0.00 0.00 54 1008.4
20260902184549 59 296 4.3 11.3 0.00 0.00 0.00 54 1008.5
20260902184034 59 326 5.2 9.6 0.00 0.00 0.00 54 1008.4
20260902183535 59 259 3.5 10.4 0.00 0.00 0.00 55 1008.4
20260902183110 59 196 3.5 10.4 0.00 0.00 0.00 56 1008.3
20260902182536 59 296 5.2 10.4 0.00 0.00 0.00 58 1008.2
20260902182034 59 223 2.6 6.1 0.00 0.00 0.00 57 1008.3
20260902181545 59 282 1.7 6.1 0.00 0.00 0.00 56 1008.2
20260902181032 60 237 2.6 6.1 0.00 0.00 0.00 56 1008.2
20260902180536 60 249 2.6 7.8 0.00 0.00 0.00 55 1008.3
20260902180050 61 252 3.5 7.8 0.00 0.00 0.00 54 1008.2
20260902175532 61 252 3.5 7.0 0.00 0.00 0.00 54 1008.2
20260902175033 61 238 2.6 7.0 0.00 0.00 0.00 54 1008.1
20260902174552 61 214 2.6 7.8 0.00 0.00 0.00 54 1008.1
20260902174034 61 212 3.5 8.7 0.00 0.00 0.00 53 1008.0
20260902173535 62 248 4.3 9.6 0.00 0.00 0.00 52 1008.0
20260902173111 62 229 5.2 9.6 0.00 0.00 0.00 51 1008.0
20260902172533 63 220 5.2 10.4 0.00 0.00 0.00 51 1008.0
20260902172034 63 266 4.3 13.0 0.00 0.00 0.00 50 1008.0
20260902171557 63 248 6.1 13.0 0.00 0.00 0.00 49 1008.1
20260902171032 64 263 6.1 13.0 0.00 0.00 0.00 49 1008.0
20260902170532 64 289 5.2 13.0 0.00 0.00 0.00 49 1008.1
20260902170052 64 279 7.0 13.0 0.00 0.00 0.00 48 1008.1
20260902165535 64 224 3.5 9.6 0.00 0.00 0.00 48 1008.1
20260902165032 64 255 5.2 11.3 0.00 0.00 0.00 48 1008.0
20260902164604 64 238 6.1 11.3 0.00 0.00 0.00 46 1008.1
20260902164034 65 231 4.3 10.4 0.00 0.00 0.00 46 1008.0
20260902163534 65 221 6.1 9.6 0.00 0.00 0.00 45 1008.0
20260902163052 66 231 2.6 7.8 0.00 0.00 0.00 45 1008.0
20260902162533 66 255 4.3 8.7 0.00 0.00 0.00 45 1007.9
20260902162034 66 243 4.3 10.4 0.00 0.00 0.00 43 1008.0
20260902161550 66 229 4.3 10.4 0.00 0.00 0.00 44 1007.9
20260902161031 66 228 5.2 10.4 0.00 0.00 0.00 43 1007.9
20260902160531 67 293 2.6 9.6 0.00 0.00 0.00 43 1007.9
20260902160047 67 259 4.3 9.6 0.00 0.00 0.00 42 1008.0
20260902155535 67 297 3.5 9.6 0.00 0.00 0.00 43 1008.0
20260902155032 67 300 4.3 9.6 0.00 0.00 0.00 43 1008.0
20260902154553 66 311 3.5 9.6 0.00 0.00 0.00 42 1007.9
20260902154034 67 289 5.2 10.4 0.00 0.00 0.00 42 1008.1
20260902153531 67 357 5.2 11.3 0.00 0.00 0.00 43 1007.9
20260902153059 67 245 7.0 13.0 0.00 0.00 0.00 42 1008.0
20260902152531 67 267 7.0 13.0 0.00 0.00 0.00 43 1008.0
20260902152032 67 269 7.0 13.0 0.00 0.00 0.00 42 1007.9
20260902151545 67 241 8.7 13.0 0.00 0.00 0.00 41 1007.9
20260902151031 68 274 3.5 16.5 0.00 0.00 0.00 42 1007.9
20260902150534 68 250 6.1 16.5 0.00 0.00 0.00 42 1008.0
20260902150055 68 237 8.7 13.9 0.00 0.00 0.00 41 1008.1
20260902145532 68 219 7.8 11.3 0.00 0.00 0.00 44 1008.0
20260902145031 68 257 5.2 12.2 0.00 0.00 0.00 43 1008.1
20260902144551 66 319 6.1 13.0 0.00 0.00 0.00 43 1008.1
20260902144031 66 214 6.1 13.0 0.00 0.00 0.00 44 1008.1
20260902143533 67 237 7.0 13.0 0.00 0.00 0.00 44 1008.1
20260902143048 67 280 5.2 14.8 0.00 0.00 0.00 43 1008.2
20260902142533 66 238 6.1 14.8 0.00 0.00 0.00 45 1008.2
20260902142032 67 246 7.8 13.9 0.00 0.00 0.00 44 1008.2